Date String (YYYY-MM-DD hh:mm:ss) UTC,Instrument flags,absolute air pressure of the measurement (hPa),sample flow rate (lpm),inlet stack bypass flow (lpm),air temperature of the measurement (°C),ambient temperature measured by the external sensor (°C),aerosol sample conditioner tube jacket temperature (°C),OPC LED temperature (°C),internal box temperature (°C),relative humidity of the measurement (%),span deviation,mass concentration of particles derived from Lorenz-Mie calculation of OPC scattering (μg/m³),mass concentration of particles derived from Lorenz-Mie calculation of OPC scattering (μg/m³),mass concentration of particles derived from Lorenz-Mie calculation of OPC scattering (μg/m³)
DateTimeUTC,F1_M11,P_M11,Q1_M11,Q2_M11,T1_M11,T2_M11,T3_M11,T4_M11,T5_M11,U1_M11,ZSPAN_M11,X2_M11,X0_M11,X1_M11
2023-08-14 19:00:00,SystemResetWarning,0840.1,5.01,000.00,028.9,025.0,000.0,037.3,030.0,23.3,0000.0,0005.15,0010.10,0004.45
2023-08-14 19:01:00,SystemResetWarning,0840.2,5.00,000.00,028.8,025.4,000.0,037.3,030.2,23.4,0000.0,0005.11,0009.55,0004.44
2023-08-14 19:02:00,SystemResetWarning,0840.2,5.00,000.00,028.8,025.9,000.0,037.3,030.3,23.3,0000.0,0005.06,0009.28,0004.42
2023-08-14 19:03:00,SystemResetWarning,0840.2,5.00,000.00,028.8,026.3,000.0,037.3,030.4,23.7,0000.0,0005.09,0009.63,0004.39
2023-08-14 19:04:00,SystemResetWarning,0840.2,4.99,000.00,028.9,026.7,000.0,037.4,030.5,23.3,0000.0,0005.09,0011.20,0004.37
2023-08-14 19:05:00,SystemResetWarning,0840.2,5.00,000.00,028.9,027.0,000.0,037.4,030.6,23.3,0000.0,0005.10,0011.83,0004.36
2023-08-14 19:06:00,SystemResetWarning,0840.2,5.00,000.00,028.9,027.2,000.0,037.4,030.6,23.1,0000.0,0005.11,0012.17,0004.34
2023-08-14 19:07:00,SystemResetWarning,0840.2,5.01,000.00,029.0,027.5,000.0,037.4,030.7,23.2,0000.0,0005.11,0012.26,0004.34
2023-08-14 19:08:00,SystemResetWarning,0840.2,5.00,000.00,029.0,027.7,000.0,037.4,030.8,23.9,0000.0,0005.07,0011.95,0004.33
2023-08-14 19:09:00,SystemResetWarning,0840.2,4.99,000.00,029.1,027.8,000.0,037.4,030.8,23.5,0000.0,0005.05,0011.92,0004.30
2023-08-14 19:10:00,SystemResetWarning,0840.2,5.00,000.00,029.1,028.0,000.0,037.5,030.9,23.7,0000.0,0005.03,0012.02,0004.30
2023-08-14 19:11:00,SystemResetWarning,0840.2,4.99,000.00,029.1,027.9,000.0,037.5,030.9,23.7,0000.0,0005.01,0012.27,0004.28
2023-08-14 19:12:00,SystemResetWarning,0840.1,4.99,000.00,029.1,026.4,000.0,037.4,030.6,23.4,-000.7,0004.99,0012.28,0004.27
2023-08-14 19:13:00,SystemResetWarning,0840.0,5.00,000.00,029.1,025.6,000.0,037.3,030.4,23.1,-000.1,0005.06,0012.51,0004.26
2023-08-14 19:14:00,SystemResetWarning,0840.0,5.01,000.00,029.0,025.8,000.0,037.3,030.4,23.2,-000.2,0005.05,0012.40,0004.27
2023-08-14 19:15:00,SystemResetWarning,0840.0,5.01,000.00,028.9,026.1,000.0,037.3,030.4,24.0,-000.7,0005.01,0010.69,0004.26
2023-08-14 19:16:00,SystemResetWarning,0840.1,5.00,000.00,028.9,026.4,000.0,037.4,030.5,24.0,-000.4,0005.00,0010.19,0004.27
2023-08-14 19:17:00,SystemResetWarning,0840.0,5.00,000.00,029.0,026.8,000.0,037.4,030.6,23.9,-000.9,0005.00,0010.14,0004.27
2023-08-14 19:18:00,SystemResetWarning,0840.0,5.00,000.00,029.0,027.1,000.0,037.4,030.7,23.9,-000.6,0005.02,0010.44,0004.27
2023-08-14 19:19:00,SystemResetWarning,0840.0,4.99,000.00,029.0,027.3,000.0,037.4,030.7,23.3,0000.0,0005.03,0011.14,0004.27
2023-08-14 19:20:00,SystemResetWarning,0839.9,5.01,000.00,029.1,027.5,000.0,037.5,030.8,22.7,-000.1,0005.09,0011.53,0004.28
2023-08-14 19:21:00,SystemResetWarning,0840.0,5.00,000.00,029.1,027.7,000.0,037.5,030.9,22.5,-000.5,0005.06,0012.31,0004.27
2023-08-14 19:22:00,SystemResetWarning,0840.0,5.00,000.00,029.1,027.9,000.0,037.5,030.9,22.2,-001.2,0005.10,0012.34,0004.28
2023-08-14 19:23:00,SystemResetWarning,0840.0,5.00,000.00,029.2,028.0,000.0,037.5,031.0,22.4,-000.8,0005.13,0013.87,0004.29
2023-08-14 19:24:00,SystemResetWarning,0839.9,4.98,000.00,029.2,026.9,000.0,037.4,030.7,22.3,-001.7,0005.12,0014.24,0004.28
2023-08-14 19:25:00,SystemResetWarning,0839.9,5.01,000.00,029.1,025.6,000.0,037.3,030.4,22.2,-001.0,0005.09,0014.32,0004.28
2023-08-14 19:26:00,SystemResetWarning,0839.9,5.01,000.00,029.1,025.7,000.0,037.3,030.4,22.2,-000.2,0005.10,0014.92,0004.28
2023-08-14 19:27:00,SystemResetWarning,0839.9,5.00,000.00,029.0,026.0,000.0,037.4,030.3,22.4,-000.2,0005.08,0014.92,0004.26
2023-08-14 19:28:00,SystemResetWarning,0839.9,5.00,000.00,029.0,026.3,000.0,037.4,030.4,22.8,-000.5,0005.07,0014.99,0004.25
2023-08-14 19:29:00,SystemResetWarning,0839.9,5.00,000.00,029.0,026.7,000.0,037.4,030.6,22.8,-000.4,0005.04,0014.65,0004.23
2023-08-14 19:30:00,SystemResetWarning,0839.9,4.99,000.00,029.0,027.0,000.0,037.5,030.7,22.6,-000.2,0005.08,0013.99,0004.22
2023-08-14 19:31:00,SystemResetWarning,0839.9,5.01,000.00,029.0,027.3,000.0,037.5,030.7,22.5,0000.2,0005.03,0013.60,0004.22
2023-08-14 19:32:00,SystemResetWarning,0839.9,4.99,000.00,029.1,027.5,000.0,037.5,030.8,22.4,0000.0,0005.06,0012.94,0004.21
2023-08-14 19:33:00,SystemResetWarning,0839.9,5.00,000.00,029.1,027.7,000.0,037.5,030.9,22.3,0000.0,0005.06,0012.69,0004.21
2023-08-14 19:34:00,SystemResetWarning,0839.9,4.99,000.00,029.2,027.9,000.0,037.6,030.9,22.6,0000.0,0005.10,0012.23,0004.21
2023-08-14 19:35:00,SystemResetWarning,0839.9,5.00,000.00,029.2,027.9,000.0,037.6,031.0,22.7,0000.0,0005.08,0011.96,0004.20
2023-08-14 19:36:00,SystemResetWarning,0839.9,4.99,000.00,029.2,026.3,000.0,037.4,030.7,22.8,0000.0,0005.03,0011.62,0004.18
2023-08-14 19:37:00,SystemResetWarning,0839.8,5.02,000.00,029.1,024.8,000.0,037.3,030.3,23.4,0000.0,0005.01,0012.21,0004.17
2023-08-14 19:38:00,SystemResetWarning,0839.8,5.00,000.00,029.0,024.7,000.0,037.2,030.2,23.2,0000.0,0005.02,0012.43,0004.16
2023-08-14 19:39:00,SystemResetWarning,0839.8,4.99,000.00,028.9,025.1,000.0,037.3,030.1,23.5,0000.0,0005.03,0012.25,0004.17
2023-08-14 19:40:00,SystemResetWarning,0839.8,5.00,000.00,028.8,025.5,000.0,037.3,030.2,23.7,0000.0,0005.05,0012.33,0004.16
2023-08-14 19:41:00,SystemResetWarning,0839.7,5.01,000.00,028.9,026.0,000.0,037.3,030.3,23.0,0000.0,0005.02,0012.36,0004.16
2023-08-14 19:42:00,SystemResetWarning,0839.7,5.00,000.00,028.9,026.4,000.0,037.4,030.5,22.9,0000.0,0005.04,0012.27,0004.16
2023-08-14 19:43:00,SystemResetWarning,0839.8,5.00,000.00,028.9,026.7,000.0,037.4,030.6,22.8,0000.0,0005.03,0012.23,0004.16
2023-08-14 19:44:00,SystemResetWarning,0839.8,5.00,000.00,028.9,027.1,000.0,037.4,030.6,22.8,0000.0,0005.02,0012.13,0004.14
2023-08-14 19:45:00,SystemResetWarning,0839.8,5.00,000.00,029.0,027.3,000.0,037.4,030.7,22.6,0000.0,0004.95,0011.56,0004.13
2023-08-14 19:46:00,SystemResetWarning,0839.7,4.99,000.00,029.0,027.5,000.0,037.4,030.8,22.5,0000.0,0004.94,0011.70,0004.15
2023-08-14 19:47:00,SystemResetWarning,0839.8,5.00,000.00,029.1,027.7,000.0,037.5,030.8,22.8,0000.0,0004.97,0012.25,0004.15
2023-08-14 19:48:00,SystemResetWarning,0839.8,5.01,000.00,029.1,027.9,000.0,037.5,030.9,22.7,0000.0,0004.95,0011.11,0004.15
2023-08-14 19:49:00,SystemResetWarning,0839.8,5.00,000.00,029.2,028.1,000.0,037.5,030.9,22.7,0000.0,0004.91,0010.83,0004.15
2023-08-14 19:50:00,SystemResetWarning,0839.7,5.00,000.00,029.2,028.2,000.0,037.5,031.0,22.5,0000.0,0004.90,0010.68,0004.13
2023-08-14 19:51:00,SystemResetWarning,0839.8,4.99,000.00,029.2,027.3,000.0,037.5,030.8,22.5,0000.0,0004.91,0011.35,0004.14
2023-08-14 19:52:00,SystemResetWarning,0839.7,5.00,000.00,029.2,025.8,000.0,037.4,030.6,22.6,0000.0,0004.91,0011.38,0004.15
2023-08-14 19:53:00,SystemResetWarning,0839.7,5.01,000.00,029.1,025.7,000.0,037.3,030.5,22.7,0000.0,0004.90,0011.41,0004.14
2023-08-14 19:54:00,SystemResetWarning,0839.7,5.01,000.00,029.0,025.9,000.0,037.4,030.4,22.9,0000.0,0004.89,0011.59,0004.15
2023-08-14 19:55:00,SystemResetWarning,0839.7,4.99,000.00,029.0,026.3,000.0,037.4,030.5,22.9,0001.1,0004.88,0012.13,0004.15
2023-08-14 19:56:00,SystemResetWarning,0839.6,5.00,000.00,029.0,026.6,000.0,037.4,030.6,23.5,0001.9,0004.89,0012.07,0004.16
2023-08-14 19:57:00,SystemResetWarning,0839.6,5.00,000.00,029.0,027.0,000.0,037.5,030.7,23.1,0001.6,0004.86,0011.67,0004.15
2023-08-14 19:58:00,SystemResetWarning,0839.7,5.01,000.00,029.1,027.3,000.0,037.5,030.8,22.9,0001.8,0004.82,0011.10,0004.14
2023-08-14 19:59:00,SystemResetWarning,0839.6,4.99,000.00,029.1,027.5,000.0,037.5,030.8,22.6,0002.1,0004.83,0011.05,0004.16
